TimeCST,TemperatureF,Dew PointF,Humidity,Sea Level PressureIn,VisibilityMPH,Wind Direction,Wind SpeedMPH,Gust SpeedMPH,PrecipitationIn,Events,Conditions,WindDirDegrees,DateUTC
12:15 AM,36.0,28.2,73,30.29,10.0,Calm,Calm,-,N/A,,Clear,0,2013-03-03 06:15:00
12:35 AM,36.3,28.2,72,30.29,10.0,Calm,Calm,-,N/A,,Clear,0,2013-03-03 06:35:00
12:55 AM,36.1,28.0,72,30.30,10.0,Calm,Calm,-,N/A,,Clear,0,2013-03-03 06:55:00
1:15 AM,35.1,28.2,76,30.30,10.0,Calm,Calm,-,N/A,,Clear,0,2013-03-03 07:15:00
1:35 AM,35.6,27.5,72,30.30,10.0,Calm,Calm,-,N/A,,Clear,0,2013-03-03 07:35:00
1:55 AM,35.8,27.3,71,30.29,10.0,Calm,Calm,-,N/A,,Clear,0,2013-03-03 07:55:00
2:15 AM,34.0,28.6,81,30.28,10.0,Calm,Calm,-,N/A,,Clear,0,2013-03-03 08:15:00
2:35 AM,33.6,30.0,87,30.28,10.0,Calm,Calm,-,N/A,,Clear,0,2013-03-03 08:35:00
2:55 AM,34.0,29.7,84,30.27,10.0,Calm,Calm,-,N/A,,Clear,0,2013-03-03 08:55:00
3:15 AM,34.2,28.4,79,30.27,10.0,Calm,Calm,-,N/A,,Clear,0,2013-03-03 09:15:00
3:35 AM,34.9,27.9,76,30.25,10.0,Calm,Calm,-,N/A,,Clear,0,2013-03-03 09:35:00
3:55 AM,33.4,27.9,80,30.25,10.0,Calm,Calm,-,N/A,,Clear,0,2013-03-03 09:55:00
4:15 AM,32.9,28.6,84,30.24,10.0,Calm,Calm,-,N/A,,Clear,0,2013-03-03 10:15:00
4:35 AM,32.4,28.8,87,30.25,10.0,Calm,Calm,-,N/A,,Clear,0,2013-03-03 10:35:00
4:55 AM,33.1,28.9,85,30.26,10.0,Calm,Calm,-,N/A,,Clear,0,2013-03-03 10:55:00
5:15 AM,32.7,28.4,84,30.26,10.0,Calm,Calm,-,N/A,,Clear,0,2013-03-03 11:15:00
5:35 AM,32.0,28.4,87,30.26,10.0,ENE,3.5,-,N/A,,Clear,60,2013-03-03 11:35:00
5:55 AM,32.0,28.4,87,30.27,10.0,Calm,Calm,-,N/A,,Clear,0,2013-03-03 11:55:00
6:15 AM,32.2,28.6,87,30.26,10.0,ENE,3.5,-,N/A,,Clear,60,2013-03-03 12:15:00
6:35 AM,32.0,29.1,89,30.26,10.0,Calm,Calm,-,N/A,,Clear,0,2013-03-03 12:35:00
6:55 AM,32.7,28.9,86,30.27,10.0,Calm,Calm,-,N/A,,Clear,0,2013-03-03 12:55:00
7:15 AM,34.0,29.1,82,30.27,10.0,Calm,Calm,-,N/A,,Clear,0,2013-03-03 13:15:00
7:35 AM,36.5,31.1,81,30.28,10.0,Calm,Calm,-,N/A,,Clear,0,2013-03-03 13:35:00
7:55 AM,40.6,34.9,80,30.29,10.0,Calm,Calm,-,N/A,,Clear,0,2013-03-03 13:55:00
8:15 AM,46.2,35.8,67,30.29,10.0,ENE,3.5,-,N/A,,Clear,60,2013-03-03 14:15:00
8:35 AM,50.9,35.1,55,30.29,10.0,East,3.5,-,N/A,,Clear,100,2013-03-03 14:35:00
8:55 AM,54.3,34.5,47,30.29,10.0,ESE,5.8,-,N/A,,Clear,110,2013-03-03 14:55:00
9:15 AM,56.5,35.1,45,30.29,10.0,ESE,6.9,-,N/A,,Clear,120,2013-03-03 15:15:00
9:35 AM,58.5,35.4,42,30.29,10.0,ESE,6.9,-,N/A,,Clear,120,2013-03-03 15:35:00
9:55 AM,60.1,33.6,37,30.29,10.0,East,6.9,-,N/A,,Clear,100,2013-03-03 15:55:00
10:15 AM,61.9,32.9,34,30.28,10.0,ESE,4.6,-,N/A,,Clear,110,2013-03-03 16:15:00
10:35 AM,63.5,33.1,32,30.27,10.0,SSE,8.1,-,N/A,,Clear,150,2013-03-03 16:35:00
10:55 AM,64.9,34.2,32,30.26,10.0,South,10.4,-,N/A,,Clear,180,2013-03-03 16:55:00
11:15 AM,65.8,34.3,31,30.26,10.0,SSW,9.2,-,N/A,,Clear,200,2013-03-03 17:15:00
11:35 AM,66.2,34.3,31,30.26,10.0,South,10.4,16.1,N/A,,Clear,180,2013-03-03 17:35:00
11:55 AM,66.4,35.1,31,30.25,10.0,South,11.5,16.1,N/A,,Clear,180,2013-03-03 17:55:00
12:15 PM,66.2,36.0,33,30.24,10.0,SSE,10.4,16.1,N/A,,Clear,150,2013-03-03 18:15:00
12:35 PM,66.6,37.0,34,30.23,10.0,SSW,9.2,-,N/A,,Clear,200,2013-03-03 18:35:00
12:55 PM,66.9,37.6,34,30.21,10.0,SSE,11.5,18.4,N/A,,Clear,160,2013-03-03 18:55:00
1:15 PM,67.5,38.3,34,30.20,10.0,South,12.7,18.4,N/A,,Clear,170,2013-03-03 19:15:00
1:35 PM,67.3,38.7,35,30.19,10.0,South,10.4,17.3,N/A,,Clear,170,2013-03-03 19:35:00
1:55 PM,67.5,39.6,36,30.18,10.0,South,11.5,19.6,N/A,,Clear,190,2013-03-03 19:55:00
2:15 PM,67.8,39.9,36,30.16,10.0,SSE,15.0,21.9,N/A,,Clear,160,2013-03-03 20:15:00
2:35 PM,67.8,41.2,38,30.15,10.0,South,12.7,19.6,N/A,,Clear,190,2013-03-03 20:35:00
2:55 PM,67.6,41.9,39,30.15,10.0,South,16.1,21.9,N/A,,Clear,180,2013-03-03 20:55:00
3:15 PM,68.0,41.0,37,30.14,10.0,South,15.0,18.4,N/A,,Clear,190,2013-03-03 21:15:00
3:35 PM,67.5,42.8,41,30.14,10.0,South,13.8,18.4,N/A,,Clear,170,2013-03-03 21:35:00
3:55 PM,67.1,43.0,42,30.13,10.0,South,15.0,20.7,N/A,,Clear,170,2013-03-03 21:55:00
4:15 PM,66.6,43.9,44,30.13,10.0,South,15.0,20.7,N/A,,Clear,170,2013-03-03 22:15:00
4:35 PM,66.4,45.0,46,30.13,10.0,South,15.0,-,N/A,,Clear,170,2013-03-03 22:35:00
4:55 PM,65.8,45.7,48,30.13,10.0,South,15.0,20.7,N/A,,Clear,170,2013-03-03 22:55:00
5:15 PM,65.3,46.4,50,30.12,10.0,South,13.8,19.6,N/A,,Clear,170,2013-03-03 23:15:00
5:35 PM,64.6,46.9,53,30.12,10.0,South,10.4,-,N/A,,Clear,170,2013-03-03 23:35:00
5:55 PM,63.5,47.3,56,30.12,10.0,South,12.7,-,N/A,,Clear,170,2013-03-03 23:55:00
6:15 PM,62.2,47.3,58,30.11,10.0,SSE,11.5,-,N/A,,Clear,160,2013-03-04 00:15:00
6:35 PM,60.1,47.5,63,30.10,10.0,SSE,8.1,-,N/A,,Clear,160,2013-03-04 00:35:00
6:55 PM,58.3,47.8,68,30.09,10.0,SSE,8.1,-,N/A,,Clear,160,2013-03-04 00:55:00
7:15 PM,56.5,48.2,74,30.09,10.0,SSE,6.9,-,N/A,,Clear,150,2013-03-04 01:15:00
7:35 PM,55.6,48.6,77,30.08,10.0,SSE,6.9,-,N/A,,Clear,160,2013-03-04 01:35:00
7:55 PM,55.2,49.1,80,30.08,10.0,SSE,8.1,-,N/A,,Clear,150,2013-03-04 01:55:00
8:15 PM,55.4,49.6,81,30.08,10.0,SSE,8.1,-,N/A,,Clear,150,2013-03-04 02:15:00
8:35 PM,55.4,50.0,82,30.08,10.0,SSE,8.1,-,N/A,,Clear,150,2013-03-04 02:35:00
8:55 PM,55.8,50.7,83,30.07,10.0,SSE,9.2,-,N/A,,Clear,150,2013-03-04 02:55:00
9:15 PM,56.8,51.6,83,30.06,10.0,SSE,11.5,-,N/A,,Clear,150,2013-03-04 03:15:00
9:35 PM,57.9,52.0,81,30.06,10.0,SSE,11.5,-,N/A,,Clear,150,2013-03-04 03:35:00
9:55 PM,58.5,52.2,80,30.06,10.0,SSE,10.4,-,N/A,,Clear,150,2013-03-04 03:55:00
10:15 PM,58.5,52.7,81,30.06,10.0,SSE,10.4,-,N/A,,Clear,150,2013-03-04 04:15:00
10:35 PM,58.5,53.1,82,30.06,10.0,SSE,10.4,-,N/A,,Clear,160,2013-03-04 04:35:00
10:55 PM,58.8,53.4,82,30.04,10.0,SSE,10.4,-,N/A,,Clear,160,2013-03-04 04:55:00
11:15 PM,59.0,53.4,82,30.03,10.0,SSE,11.5,-,N/A,,Clear,160,2013-03-04 05:15:00
11:35 PM,59.2,53.8,82,30.03,10.0,SSE,10.4,-,N/A,,Clear,160,2013-03-04 05:35:00
11:55 PM,59.2,53.8,82,30.02,10.0,SSE,11.5,-,N/A,,Clear,160,2013-03-04 05:55:00